• In Uzbekistan
  • List of Countries
  • For 7 days
  • Water Temperature
  • Satellite Maps
  • Weather Map
  • Weather Widgets
  • user-avatar
    Login

    Hourly Weather Escaldes-Engordany

    Today, 28 May, Sunday

    Time Temperature Precipitation Wind Pressure Humidity
    00:00 +12°C° 0 mm 1 mps 641 mmHg 87%
    01:00 +11°C° 0 mm 1 mps 641 mmHg 86%
    02:00 +11°C° 0 mm 1 mps 641 mmHg 86%
    03:00 +11°C° 0 mm 1 mps 640 mmHg 86%
    04:00 +12°C° 0 mm 1 mps 641 mmHg 81%
    05:00 +13°C° 0 mm 2 mps 641 mmHg 77%
    06:00 +15°C° 0 mm 2 mps 642 mmHg 71%
    07:00 +17°C° 0 mm 2 mps 643 mmHg 61%
    08:00 +19°C° 0 mm 2 mps 644 mmHg 52%
    09:00 +21°C° 0 mm 2 mps 644 mmHg 42%
    10:00 +22°C° 0 mm 3 mps 645 mmHg 40%
    11:00 +24°C° 0 mm 3 mps 645 mmHg 37%
    12:00 +25°C° 0 mm 3 mps 645 mmHg 35%
    13:00 +25°C° 0 mm 3 mps 645 mmHg 36%
    14:00 +25°C° 0 mm 3 mps 645 mmHg 37%
    15:00 +25°C° 0 mm 4 mps 644 mmHg 38%
    16:00 +22°C° 0 mm 3 mps 644 mmHg 43%
    17:00 +21°C° 0 mm 3 mps 643 mmHg 49%
    18:00 +19°C° 0 mm 3 mps 643 mmHg 54%
    19:00 +17°C° 0 mm 2 mps 642 mmHg 61%
    20:00 +14°C° 0 mm 2 mps 641 mmHg 67%
    21:00 +12°C° 0 mm 2 mps 640 mmHg 73%
    22:00 +12°C° 0 mm 2 mps 640 mmHg 71%
    23:00 +10°C° 0 mm 2 mps 640 mmHg 70%

    Tomorrow, 29 May, Monday

    Time Temperature Precipitation Wind Pressure Humidity
    00:00 +10°C° 0 mm 2 mps 640 mmHg 68%
    01:00 +10°C° 0 mm 2 mps 640 mmHg 64%
    02:00 +9°C° 0 mm 2 mps 639 mmHg 60%
    03:00 +9°C° 0 mm 2 mps 639 mmHg 55%
    04:00 +11°C° 0 mm 1 mps 639 mmHg 55%
    05:00 +12°C° 0 mm 1 mps 640 mmHg 55%
    06:00 +13°C° 0 mm 1 mps 640 mmHg 55%
    07:00 +15°C° 0 mm 2 mps 641 mmHg 49%
    08:00 +17°C° 0 mm 2 mps 641 mmHg 43%
    09:00 +18°C° 0 mm 2 mps 642 mmHg 38%
    10:00 +19°C° 0 mm 2 mps 642 mmHg 36%
    11:00 +20°C° 0 mm 3 mps 642 mmHg 35%
    12:00 +20°C° 0 mm 3 mps 643 mmHg 33%
    13:00 +20°C° 0 mm 3 mps 642 mmHg 35%
    14:00 +20°C° 0 mm 3 mps 642 mmHg 36%
    15:00 +20°C° 0 mm 3 mps 642 mmHg 37%
    16:00 +19°C° 0.1 mm 3 mps 641 mmHg 43%
    17:00 +18°C° 0.1 mm 2 mps 641 mmHg 49%
    18:00 +17°C° 0.1 mm 2 mps 640 mmHg 55%
    19:00 +14°C° 0.1 mm 1 mps 640 mmHg 63%
    20:00 +12°C° 0.1 mm 1 mps 639 mmHg 72%
    21:00 +10°C° 0.1 mm 1 mps 639 mmHg 81%
    22:00 +9°C° 0.1 mm 1 mps 639 mmHg 82%
    23:00 +9°C° 0.1 mm 1 mps 638 mmHg 83%

    Day after tomorrow, 30 May, Tuesday

    Time Temperature Precipitation Wind Pressure Humidity
    00:00 +9°C° 0.1 mm 1 mps 638 mmHg 85%
    01:00 +9°C° 0 mm 1 mps 638 mmHg 86%
    02:00 +8°C° 0 mm 1 mps 638 mmHg 88%
    03:00 +8°C° 0 mm 1 mps 638 mmHg 89%
    04:00 +9°C° 0 mm 1 mps 639 mmHg 85%
    05:00 +11°C° 0 mm 1 mps 639 mmHg 81%
    06:00 +12°C° 0 mm 1 mps 640 mmHg 77%
    07:00 +14°C° 0 mm 1 mps 641 mmHg 69%
    08:00 +15°C° 0 mm 1 mps 642 mmHg 60%
    09:00 +18°C° 0 mm 1 mps 642 mmHg 51%
    10:00 +17°C° 0.2 mm 2 mps 643 mmHg 50%
    11:00 +18°C° 0.2 mm 2 mps 643 mmHg 48%
    12:00 +19°C° 0.2 mm 2 mps 643 mmHg 46%
    13:00 +18°C° 0.3 mm 2 mps 643 mmHg 48%
    14:00 +18°C° 0.3 mm 2 mps 642 mmHg 50%
    15:00 +17°C° 0.3 mm 2 mps 642 mmHg 52%
    16:00 +17°C° 0.1 mm 2 mps 642 mmHg 56%
    17:00 +16°C° 0.1 mm 2 mps 642 mmHg 61%
    18:00 +15°C° 0.1 mm 1 mps 641 mmHg 65%
    19:00 +13°C° 0.2 mm 1 mps 641 mmHg 74%
    20:00 +11°C° 0.2 mm 1 mps 640 mmHg 82%
    21:00 +7°C° 0.2 mm 0 mps 640 mmHg 90%
    22:00 +7°C° 0 mm 0 mps 640 mmHg 91%
    23:00 +8°C° 0 mm 1 mps 640 mmHg 91%

    31 May, Wednesday

    Time Temperature Precipitation Wind Pressure Humidity
    00:00 +8°C° 0 mm 1 mps 640 mmHg 92%
    01:00 +8°C° 0.1 mm 1 mps 640 mmHg 92%
    02:00 +8°C° 0.1 mm 1 mps 640 mmHg 92%
    03:00 +8°C° 0.1 mm 1 mps 640 mmHg 92%
    04:00 +9°C° 0.2 mm 1 mps 640 mmHg 88%
    05:00 +9°C° 0.2 mm 0 mps 641 mmHg 84%
    06:00 +11°C° 0.2 mm 0 mps 642 mmHg 80%
    07:00 +12°C° 0.2 mm 0 mps 642 mmHg 72%
    08:00 +15°C° 0.2 mm 1 mps 643 mmHg 64%
    09:00 +18°C° 0.2 mm 1 mps 644 mmHg 57%
    10:00 +18°C° 0.5 mm 1 mps 643 mmHg 57%
    11:00 +18°C° 0.5 mm 1 mps 643 mmHg 57%
    12:00 +18°C° 0.5 mm 2 mps 643 mmHg 58%
    13:00 +18°C° 1.2 mm 1 mps 643 mmHg 60%
    14:00 +18°C° 1.2 mm 1 mps 642 mmHg 63%
    15:00 +16°C° 1.2 mm 1 mps 642 mmHg 66%
    16:00 +16°C° 0.9 mm 1 mps 642 mmHg 70%
    17:00 +15°C° 0.9 mm 1 mps 642 mmHg 75%
    18:00 +14°C° 0.9 mm 1 mps 641 mmHg 79%
    19:00 +12°C° 0.2 mm 0 mps 641 mmHg 82%
    20:00 +10°C° 0.2 mm 0 mps 641 mmHg 85%
    21:00 +9°C° 0.2 mm 0 mps 640 mmHg 88%
    22:00 +8°C° 0 mm 0 mps 640 mmHg 89%
    23:00 +8°C° 0 mm 0 mps 640 mmHg 89%

    1 June, Thursday

    Time Temperature Precipitation Wind Pressure Humidity
    00:00 +7°C° 0 mm 0 mps 640 mmHg 90%
    01:00 +7°C° 0 mm 0 mps 639 mmHg 90%
    02:00 +6°C° 0 mm 0 mps 639 mmHg 90%
    03:00 +6°C° 0 mm 0 mps 639 mmHg 90%
    04:00 +8°C° 0 mm 0 mps 640 mmHg 85%
    05:00 +10°C° 0 mm 0 mps 640 mmHg 81%
    06:00 +12°C° 0 mm 0 mps 641 mmHg 77%
    07:00 +14°C° 0 mm 0 mps 642 mmHg 68%
    08:00 +16°C° 0 mm 0 mps 643 mmHg 60%
    09:00 +20°C° 0 mm 1 mps 644 mmHg 52%
    10:00 +21°C° 0.1 mm 1 mps 644 mmHg 49%
    11:00 +21°C° 0.1 mm 1 mps 644 mmHg 46%
    12:00 +22°C° 0.1 mm 1 mps 644 mmHg 43%
    13:00 +22°C° 0.1 mm 1 mps 643 mmHg 47%
    14:00 +21°C° 0.1 mm 1 mps 643 mmHg 51%
    15:00 +20°C° 0.1 mm 1 mps 643 mmHg 55%
    16:00 +20°C° 0 mm 1 mps 642 mmHg 59%
    17:00 +19°C° 0 mm 1 mps 642 mmHg 62%
    18:00 +18°C° 0 mm 1 mps 642 mmHg 66%
    19:00 +15°C° 0 mm 1 mps 641 mmHg 73%
    20:00 +13°C° 0 mm 1 mps 641 mmHg 81%
    21:00 +9°C° 0 mm 0 mps 640 mmHg 88%
    22:00 +10°C° 0 mm 1 mps 640 mmHg 88%
    23:00 +10°C° 0 mm 1 mps 640 mmHg 88%

    2 June, Friday

    Time Temperature Precipitation Wind Pressure Humidity
    00:00 +9°C° 0 mm 1 mps 640 mmHg 88%
    01:00 +9°C° 0 mm 1 mps 639 mmHg 88%
    02:00 +9°C° 0 mm 1 mps 639 mmHg 87%
    03:00 +8°C° 0 mm 1 mps 639 mmHg 87%
    04:00 +10°C° 0 mm 1 mps 640 mmHg 83%
    05:00 +12°C° 0 mm 1 mps 641 mmHg 78%
    06:00 +14°C° 0 mm 1 mps 642 mmHg 74%
    07:00 +16°C° 0 mm 1 mps 642 mmHg 67%
    08:00 +19°C° 0 mm 1 mps 643 mmHg 60%
    09:00 +20°C° 0 mm 2 mps 643 mmHg 53%
    10:00 +20°C° 0.1 mm 2 mps 643 mmHg 52%
    11:00 +21°C° 0.1 mm 2 mps 643 mmHg 50%
    12:00 +23°C° 0.1 mm 2 mps 643 mmHg 49%
    13:00 +23°C° 0.2 mm 2 mps 643 mmHg 49%
    14:00 +22°C° 0.2 mm 3 mps 643 mmHg 50%
    15:00 +22°C° 0.2 mm 3 mps 642 mmHg 50%
    16:00 +21°C° 0.2 mm 2 mps 642 mmHg 55%
    17:00 +20°C° 0.2 mm 2 mps 641 mmHg 59%
    18:00 +19°C° 0.2 mm 2 mps 641 mmHg 63%
    19:00 +17°C° 0 mm 2 mps 640 mmHg 71%
    20:00 +15°C° 0 mm 2 mps 640 mmHg 78%
    21:00 +12°C° 0 mm 1 mps 639 mmHg 86%
    22:00 +12°C° 0 mm 1 mps 639 mmHg 86%
    23:00 +11°C° 0 mm 1 mps 638 mmHg 86%
    Show more